+ View the NASA Portal
+ Center for Near-Earth Object Studies
IMPORTANT:
The SSD Announcement email list is now available. Major changes are coming in the near future, including possible hostname and/or URL changes. To be notified of such changes, subscribe to this email list.
Please visit
this page
for more details.
Don't show this message again
JPL Small-Body Database Browser
Search:
[
help
]
249449 (2009 GA4)
Classification:
Outer Main-belt Asteroid
SPK-ID:
2249449
[
Ephemeris
|
Orbit Diagram
|
Orbital Elements
|
Mission Design
|
Physical Parameters
|
Discovery Circumstances
|
Close-Approach Data
]
[ show orbit diagram ]
Orbital Elements at Epoch 2458600.5 (2019-Apr-27.0) TDB
Reference:
JPL 13
(heliocentric ecliptic J2000)
Element
Value
Uncertainty (1-sigma)
Units
e
.09969756538359566
4.7674e-08
a
3.209986426878488
5.2077e-08
au
q
2.889958595204315
1.5252e-07
au
i
4.786952535438658
5.6004e-06
deg
node
256.2955736091141
8.0887e-05
deg
peri
24.37977704314304
8.8338e-05
deg
M
196.5741197203665
3.5072e-05
deg
t
p
2459554.111661004061
(2021-Dec-05.61166100)
0.00020527
TDB
period
2100.647690402833
5.75
5.1119e-05
1.4e-07
d
yr
n
.1713757150448033
4.1704e-09
deg/d
Q
3.530014258552661
5.7269e-08
au
Orbit Determination Parameters
# obs. used (total)
214
data-arc span
6216 days (17.02 yr)
first obs. used
2000-11-19
last obs. used
2017-11-26
planetary ephem.
DE431
SB-pert. ephem.
SB431-N16
condition code
0
norm. resid. RMS
.5795
source
ORB
producer
Otto Matic
solution date
2018-Oct-04 09:56:00
Additional Information
Earth MOID
= 1.87383 au
Jupiter MOID
= 1.5862 au
T_jup
= 3.179
[ show covariance matrix ]
[
Ephemeris
|
Orbit Diagram
|
Orbital Elements
|
Mission Design
|
Physical Parameters
|
Discovery Circumstances
|
Close-Approach Data
]
Physical Parameter Table
Parameter
Symbol
Value
Units
Sigma
Reference
Notes
absolute magnitude
H
15.4
n/a
MPO427416
diameter
diameter
5.114
km
0.250
urn:nasa:pds:neowise_diameters_albedos::2.0[mainbelt] (http://adsabs.harvard.edu/abs/2011ApJ...741...68M)
geometric albedo
albedo
0.047
0.015
urn:nasa:pds:neowise_diameters_albedos::2.0[mainbelt] (http://adsabs.harvard.edu/abs/2011ApJ...741...68M)
249449 (2009 GA4)
Discovered 2009-Apr-13 by Sheridan, E. at Kanab
Reference:
20100824/Numbers.arc
Last Updated:
2010-08-27
[ show close-approach data ]
Alternate Designations
2009 GA4
= 2003 FX50 = 2006 WS28
[
Ephemeris
|
Orbit Diagram
|
Orbital Elements
|
Mission Design
|
Physical Parameters
|
Discovery Circumstances
|
Close-Approach Data
]
2019-Dec-07 01:54 UT
(server date/time)
Site Manager:
Ryan S. Park
Webmaster
:
Alan B. Chamberlin